K5RNB Weather Reports


Display with metric or nautical units.
time (UTC)temp
F
wind
direction
speed
MPH
gust
MPH
rain 1hr
in
rain 24hr
in
rain mn
in
humidity
%
barometer
mb
20260902191434 96 17 8.0 12.0 0.00 0.00 0.00 47 1011.7
20260902190434 95 320 8.0 14.0 0.00 0.00 0.00 49 1012.0
20260902185934 97 34 8.0 14.0 0.00 0.00 0.00 47 1012.0
20260902185434 98 11 4.0 12.0 0.00 0.00 0.00 46 1012.1
20260902184936 98 61 5.0 12.0 0.00 0.00 0.00 45 1012.1
20260902184434 98 92 4.0 12.0 0.00 0.00 0.00 44 1012.3
20260902183934 99 60 8.0 12.0 0.00 0.00 0.00 45 1012.3
20260902183434 98 101 3.0 9.0 0.00 0.00 0.00 44 1012.3
20260902182935 98 96 4.0 9.0 0.00 0.00 0.00 45 1012.5
20260902182434 97 67 3.0 10.0 0.00 0.00 0.00 47 1012.6
20260902181934 97 158 3.0 12.0 0.00 0.00 0.00 47 1012.7
20260902181434 97 122 6.0 12.0 0.00 0.00 0.00 47 1012.8
20260902180435 97 116 3.0 14.0 0.00 0.00 0.00 47 1013.0
20260902175934 97 84 3.0 14.0 0.00 0.00 0.00 48 1013.1
20260902175434 96 120 5.0 14.0 0.00 0.00 0.00 47 1013.1
20260902174935 96 58 3.0 14.0 0.00 0.00 0.00 47 1013.2
20260902174435 96 64 7.0 14.0 0.00 0.00 0.00 47 1013.4
20260902173934 96 82 6.0 12.0 0.00 0.00 0.00 47 1013.3
20260902173435 96 104 5.0 12.0 0.00 0.00 0.00 48 1013.5
20260902172435 94 135 6.0 12.0 0.00 0.00 0.00 49 1013.7
20260902171934 94 170 3.0 14.0 0.00 0.00 0.00 49 1013.7
20260902171434 95 146 7.0 14.0 0.00 0.00 0.00 49 1013.9
20260902170935 96 119 3.0 12.0 0.00 0.00 0.00 48 1013.8
20260902170435 96 103 3.0 10.0 0.00 0.00 0.00 49 1013.9
20260902165935 96 82 5.0 10.0 0.00 0.00 0.00 48 1014.0
20260902165434 95 31 1.0 6.0 0.00 0.00 0.00 51 1014.1
20260902164935 94 170 3.0 10.0 0.00 0.00 0.00 50 1014.1
20260902164434 94 127 6.0 10.0 0.00 0.00 0.00 49 1014.2
20260902163935 94 94 3.0 9.0 0.00 0.00 0.00 50 1014.2
20260902163435 93 130 2.0 9.0 0.00 0.00 0.00 52 1014.2
20260902162935 93 107 3.0 9.0 0.00 0.00 0.00 51 1014.2
20260902162435 94 139 7.0 10.0 0.00 0.00 0.00 51 1014.2
20260902161935 94 65 2.0 12.0 0.00 0.00 0.00 53 1014.3
20260902161435 93 85 4.0 12.0 0.00 0.00 0.00 53 1014.3
20260902160936 92 107 3.0 10.0 0.00 0.00 0.00 54 1014.4
20260902160435 91 69 2.0 7.0 0.00 0.00 0.00 57 1014.3
20260902155935 91 164 3.0 9.0 0.00 0.00 0.00 57 1014.4
20260902155435 91 117 5.0 9.0 0.00 0.00 0.00 58 1014.3
20260902154936 91 217 4.0 9.0 0.00 0.00 0.00 57 1014.4
20260902154436 92 161 3.0 8.0 0.00 0.00 0.00 55 1014.3
20260902153936 93 90 2.0 8.0 0.00 0.00 0.00 56 1014.4
20260902153435 92 89 2.0 7.0 0.00 0.00 0.00 57 1014.3
20260902152935 91 110 3.0 7.0 0.00 0.00 0.00 56 1014.4
20260902152435 92 117 3.0 7.0 0.00 0.00 0.00 57 1014.3
20260902151936 91 73 1.0 9.0 0.00 0.00 0.00 59 1014.3
20260902151435 90 73 5.0 9.0 0.00 0.00 0.00 60 1014.2
20260902150935 89 167 3.0 7.0 0.00 0.00 0.00 60 1014.2
20260902144936 89 130 2.0 8.0 0.00 0.00 0.00 61 1014.2
20260902144435 88 98 3.0 8.0 0.00 0.00 0.00 62 1014.3
20260902143936 88 96 3.0 8.0 0.00 0.00 0.00 62 1014.2
20260902143436 87 102 3.0 8.0 0.00 0.00 0.00 64 1014.4
20260902142436 86 157 4.0 7.0 0.00 0.00 0.00 64 1014.4
20260902141936 86 177 3.0 7.0 0.00 0.00 0.00 65 1014.2
20260902140937 87 126 3.0 8.0 0.00 0.00 0.00 65 1014.3
20260902140436 87 121 3.0 8.0 0.00 0.00 0.00 64 1014.2
20260902135936 86 123 3.0 7.0 0.00 0.00 0.00 65 1014.3
20260902135435 86 112 4.0 7.0 0.00 0.00 0.00 66 1014.2
20260902134937 86 122 4.0 7.0 0.00 0.00 0.00 66 1014.3
20260902134436 86 112 2.0 6.0 0.00 0.00 0.00 67 1014.2
20260902133937 85 92 3.0 6.0 0.00 0.00 0.00 67 1014.3
20260902132936 84 93 3.0 6.0 0.00 0.00 0.00 70 1014.2
20260902132435 83 107 2.0 6.0 0.00 0.00 0.00 70 1014.1
20260902131936 83 103 2.0 6.0 0.00 0.00 0.00 71 1014.1
20260902130936 83 136 2.0 3.0 0.00 0.00 0.00 72 1014.0
20260902130436 82 105 1.0 3.0 0.00 0.00 0.00 73 1014.0
20260902125937 81 106 0.0 1.0 0.00 0.00 0.00 76 1013.9
20260902125439 80 231 0.0 1.0 0.00 0.00 0.00 76 1014.1
20260902124937 80 76 0.0 1.0 0.00 0.00 0.00 77 1013.9
20260902124436 79 84 0.0 1.0 0.00 0.00 0.00 78 1013.9
20260902123936 79 93 0.0 1.0 0.00 0.00 0.00 78 1013.8
20260902123436 78 304 0.0 1.0 0.00 0.00 0.00 78 1013.7
20260902122936 78 21 0.0 2.0 0.00 0.00 0.00 78 1013.7
20260902122436 78 21 0.0 3.0 0.00 0.00 0.00 77 1013.6
20260902121936 78 21 2.0 3.0 0.00 0.00 0.00 77 1013.7
20260902121437 78 60 0.0 1.0 0.00 0.00 0.00 77 1013.5
20260902120436 79 64 0.0 1.0 0.00 0.00 0.00 76 1013.5
20260902115937 79 67 0.0 1.0 0.00 0.00 0.00 76 1013.5
20260902115436 80 67 0.0 1.0 0.00 0.00 0.00 75 1013.5
20260902114937 80 67 0.0 3.0 0.00 0.00 0.00 75 1013.5
20260902113937 80 106 2.0 3.0 0.00 0.00 0.00 76 1013.4
20260902113437 79 88 2.0 3.0 0.00 0.00 0.00 76 1013.6
20260902110437 80 112 3.0 3.0 0.00 0.00 0.00 75 1013.5
20260902105936 80 111 2.0 3.0 0.00 0.00 0.00 76 1013.5
20260902105437 79 148 0.0 2.0 0.00 0.00 0.00 76 1013.4
20260902104937 79 148 0.0 1.0 0.00 0.00 0.00 76 1013.4
20260902104436 80 148 0.0 1.0 0.00 0.00 0.00 76 1013.3
20260902103937 80 148 0.0 1.0 0.00 0.00 0.00 76 1013.4
20260902103437 80 148 0.0 1.0 0.00 0.00 0.00 76 1013.3
20260902102938 80 148 0.0 1.0 0.00 0.00 0.00 76 1013.4
20260902102437 80 148 0.0 1.0 0.00 0.00 0.00 76 1013.3
20260902101937 80 148 0.0 1.0 0.00 0.00 0.00 76 1013.4
20260902101437 80 148 0.0 1.0 0.00 0.00 0.00 76 1013.4
20260902100937 79 148 0.0 1.0 0.00 0.00 0.00 78 1013.3
20260902095937 79 148 0.0 1.0 0.00 0.00 0.00 77 1013.4
20260902095437 80 148 0.0 1.0 0.00 0.00 0.00 76 1013.4
20260902094937 80 148 0.0 1.0 0.00 0.00 0.00 76 1013.3
20260902094437 81 148 0.0 1.0 0.00 0.00 0.00 75 1013.3
20260902093437 81 148 0.0 1.0 0.00 0.00 0.00 75 1013.4
20260902092937 81 148 0.0 1.0 0.00 0.00 0.00 75 1013.3
20260902092437 81 148 0.0 1.0 0.00 0.00 0.00 75 1013.4
20260902091938 81 148 0.0 0.0 0.00 0.00 0.00 75 1013.4
20260902091437 81 148 0.0 0.0 0.00 0.00 0.00 75 1013.3
20260902090937 81 148 0.0 0.0 0.00 0.00 0.00 75 1013.4
20260902090438 81 148 0.0 2.0 0.00 0.00 0.00 74 1013.4
20260902085938 81 148 0.0 2.0 0.00 0.00 0.00 74 1013.4
20260902085437 81 87 0.0 2.0 0.00 0.00 0.00 74 1013.3
20260902084938 82 159 1.0 2.0 0.00 0.00 0.00 74 1013.3
20260902084437 82 159 1.0 3.0 0.00 0.00 0.00 73 1013.3
20260902083937 82 159 1.0 5.0 0.00 0.00 0.00 72 1013.4
20260902083438 82 156 3.0 5.0 0.00 0.00 0.00 72 1013.4
20260902082938 82 130 3.0 6.0 0.00 0.00 0.00 72 1013.5
20260902081438 83 165 2.0 5.0 0.00 0.00 0.00 71 1013.4
20260902080938 83 163 3.0 6.0 0.00 0.00 0.00 70 1013.4
20260902080438 83 144 3.0 7.0 0.00 0.00 0.00 70 1013.4
20260902075938 83 137 3.0 7.0 0.00 0.00 0.00 69 1013.4
20260902075438 84 157 5.0 7.0 0.00 0.00 0.00 69 1013.4
20260902074938 84 156 5.0 8.0 0.00 0.00 0.00 69 1013.4
20260902074438 84 165 5.0 9.0 0.00 0.00 0.00 68 1013.4
20260902073938 84 150 5.0 9.0 0.00 0.00 0.00 68 1013.4
20260902073438 84 157 5.0 8.0 0.00 0.00 0.00 67 1013.4
20260902072938 84 163 5.0 8.0 0.00 0.00 0.00 67 1013.4
20260902072438 85 156 5.0 9.0 0.00 0.00 0.00 67 1013.5
20260902071938 85 147 6.0 10.0 0.00 0.00 0.00 66 1013.3
20260902071439 85 158 7.0 10.0 0.00 0.00 0.00 66 1013.4
20260902070939 85 152 6.0 10.0 0.00 0.00 0.00 65 1013.3
20260902070439 85 154 6.0 10.0 0.00 0.00 0.00 65 1013.4
20260902065938 86 164 7.0 14.0 0.00 0.00 0.00 64 1013.3
20260902065438 86 159 9.0 14.0 0.00 0.00 0.00 64 1013.4
20260902064939 86 156 7.0 18.0 0.00 0.00 0.00 64 1013.3
20260902064438 86 157 11.0 18.0 0.00 0.00 0.00 63 1013.3
20260902063940 86 152 12.0 18.0 0.00 0.00 0.00 63 1013.2
20260902062939 86 165 12.0 16.0 0.00 0.00 0.00 64 1013.2
20260902062438 86 158 10.0 16.0 0.00 0.00 0.00 64 1013.3
20260902061938 86 165 8.0 16.0 0.00 0.00 0.00 64 1013.1
20260902060939 86 164 6.0 10.0 0.00 0.00 0.00 63 1013.0
20260902060439 87 156 6.0 12.0 0.00 0.00 0.00 63 1013.0
20260902055938 87 151 6.0 12.0 0.00 0.00 0.00 62 1012.9
20260902055439 87 155 7.0 12.0 0.00 0.00 0.00 62 1012.9
20260902054939 88 160 6.0 14.0 0.00 0.00 0.00 60 1012.8
20260902054438 88 164 7.0 14.0 0.00 0.00 0.00 59 1012.8
20260902053939 88 163 9.0 14.0 0.00 0.00 0.00 58 1012.7
20260902053439 89 153 8.0 13.0 0.00 0.00 0.00 57 1012.8
20260902052939 89 146 6.0 13.0 0.00 0.00 0.00 56 1012.7
20260902050939 89 88 4.0 9.0 0.00 0.00 0.00 56 1012.6
20260902050439 89 106 6.0 9.0 0.00 0.00 0.00 56 1012.6
20260902045939 89 103 2.0 8.0 0.00 0.00 0.00 56 1012.5
20260902045439 88 86 2.0 3.0 0.00 0.00 0.00 58 1012.6
20260902044939 88 83 3.0 3.0 0.00 0.00 0.00 58 1012.6
20260902044439 87 83 2.0 3.0 0.00 0.00 0.00 59 1012.6
20260902043939 87 82 0.0 1.0 0.00 0.00 0.00 62 1012.5
20260902043439 86 82 0.0 1.0 0.00 0.00 0.00 62 1012.6
20260902042939 86 82 0.0 1.0 0.00 0.00 0.00 63 1012.5
20260902042439 86 82 0.0 1.0 0.00 0.00 0.00 65 1012.6
20260902041941 85 82 0.0 1.0 0.00 0.00 0.00 65 1012.5
20260902041440 85 82 0.0 1.0 0.00 0.00 0.00 65 1012.7
20260902040939 85 82 0.0 1.0 0.00 0.00 0.00 66 1012.6
20260902040439 84 82 0.0 0.0 0.00 0.00 0.00 64 1012.7
20260902035940 85 82 0.0 1.0 0.00 0.00 0.00 63 1012.5
20260902034939 85 82 0.0 1.0 0.00 0.00 0.00 62 1012.6
20260902034440 86 82 0.0 1.0 0.00 0.00 0.00 60 1012.7
20260902033939 86 82 0.0 1.0 0.00 0.00 0.00 61 1012.5
20260902033439 86 82 0.0 1.0 0.00 0.00 0.00 60 1012.6
20260902032940 86 82 0.0 1.0 0.00 0.00 0.00 59 1012.5
20260902031939 87 82 0.0 1.0 0.00 0.00 0.00 59 1012.4
20260902030940 88 82 0.0 1.0 0.00 0.00 0.00 56 1012.3
20260902030439 89 82 0.0 1.0 0.00 0.00 0.00 56 1012.3
20260902025940 90 82 0.0 1.0 0.00 0.00 0.00 54 1012.1
20260902025440 90 82 0.0 3.0 0.00 0.00 0.00 54 1012.1
20260902024939 90 60 0.0 3.0 0.00 0.00 0.00 53 1012.0
20260902024440 90 121 0.0 3.0 0.00 0.00 0.00 52 1012.0
20260902023940 91 114 0.0 3.0 0.00 0.00 0.00 52 1011.8
20260902022940 91 132 3.0 3.0 0.00 0.00 0.00 51 1011.6
20260902022440 91 122 3.0 3.0 0.00 0.00 0.00 50 1011.6
20260902021940 91 118 3.0 3.0 0.00 0.00 0.00 50 1011.5
20260902021442 92 110 3.0 3.0 0.00 0.00 0.00 50 1011.5
20260902020940 92 109 3.0 3.0 0.00 0.00 0.00 50 1011.4
20260902015440 93 122 3.0 3.0 0.00 0.00 0.00 48 1011.1
20260902014940 93 109 3.0 3.0 0.00 0.00 0.00 48 1011.0
20260902014440 93 101 2.0 3.0 0.00 0.00 0.00 48 1011.0
20260902013940 93 104 3.0 3.0 0.00 0.00 0.00 48 1010.9
20260902013440 93 104 2.0 3.0 0.00 0.00 0.00 47 1010.9
20260902012940 93 107 2.0 6.0 0.00 0.00 0.00 47 1010.8
20260902012440 93 110 3.0 6.0 0.00 0.00 0.00 47 1010.9
20260902011940 94 128 3.0 6.0 0.00 0.00 0.00 47 1010.8
20260902011442 94 117 3.0 6.0 0.00 0.00 0.00 47 1010.8
20260902010940 94 115 4.0 6.0 0.00 0.00 0.00 46 1010.7
20260902010441 94 128 3.0 6.0 0.00 0.00 0.00 46 1010.8
20260902005940 94 122 3.0 5.0 0.00 0.00 0.00 46 1010.7
20260902005441 94 145 3.0 5.0 0.00 0.00 0.00 46 1010.8
20260902004941 95 143 3.0 6.0 0.00 0.00 0.00 45 1010.7
20260902004440 95 143 3.0 7.0 0.00 0.00 0.00 45 1010.8
20260902003941 95 145 5.0 7.0 0.00 0.00 0.00 44 1010.7
20260902003440 96 146 5.0 6.0 0.00 0.00 0.00 44 1010.8
20260902002940 97 154 3.0 8.0 0.00 0.00 0.00 42 1010.8
20260902001940 99 137 5.0 8.0 0.00 0.00 0.00 40 1010.9
20260902001441 100 111 5.0 8.0 0.00 0.00 0.00 39 1010.9
20260902000444 100 95 2.0 9.0 0.00 0.00 0.00 39 1011.0
20260901235940 100 99 6.0 9.0 0.00 0.00 0.00 38 1010.9
20260901235441 100 100 4.0 8.0 0.00 0.00 0.00 38 1011.1
20260901234941 100 94 2.0 10.0 0.00 0.00 0.00 39 1011.0
20260901234441 99 114 7.0 12.0 0.00 0.00 0.00 39 1011.1
20260901233940 100 127 7.0 12.0 0.00 0.00 0.00 39 1011.1
20260901233441 100 113 3.0 9.0 0.00 0.00 0.00 39 1011.2
20260901232941 99 103 5.0 12.0 0.00 0.00 0.00 38 1011.2
20260901231941 101 144 7.0 12.0 0.00 0.00 0.00 37 1011.2
20260901231441 101 94 4.0 12.0 0.00 0.00 0.00 38 1011.2
20260901230441 101 123 5.0 10.0 0.00 0.00 0.00 37 1011.2
20260901225941 101 110 6.0 10.0 0.00 0.00 0.00 37 1011.2
20260901224941 101 130 6.0 13.0 0.00 0.00 0.00 38 1011.2
20260901224441 101 149 10.0 15.0 0.00 0.00 0.00 36 1011.3
20260901223941 102 94 5.0 15.0 0.00 0.00 0.00 36 1011.3
20260901223442 103 88 5.0 10.0 0.00 0.00 0.00 35 1011.2
20260901222941 103 92 5.0 10.0 0.00 0.00 0.00 35 1011.3
20260901222441 102 85 6.0 10.0 0.00 0.00 0.00 36 1011.3
20260901221941 101 107 6.0 14.0 0.00 0.00 0.00 37 1011.2
20260901220943 101 101 8.0 16.0 0.00 0.00 0.00 38 1011.3
20260901220442 101 187 2.0 13.0 0.00 0.00 0.00 37 1011.3
20260901215941 101 131 5.0 13.0 0.00 0.00 0.00 38 1011.5
20260901215441 102 114 4.0 10.0 0.00 0.00 0.00 36 1011.4
20260901214942 101 117 6.0 14.0 0.00 0.00 0.00 37 1011.6
20260901214441 101 95 7.0 15.0 0.00 0.00 0.00 37 1011.7
20260901213941 101 108 8.0 15.0 0.00 0.00 0.00 38 1011.5
20260901213441 102 158 7.0 13.0 0.00 0.00 0.00 37 1011.5
20260901212943 103 88 6.0 13.0 0.00 0.00 0.00 36 1011.6
20260901211942 102 100 6.0 12.0 0.00 0.00 0.00 37 1011.7
20260901211441 102 87 6.0 12.0 0.00 0.00 0.00 38 1011.8
20260901210442 103 91 6.0 12.0 0.00 0.00 0.00 37 1011.9
20260901205941 102 96 4.0 12.0 0.00 0.00 0.00 38 1012.0
20260901204942 101 116 7.0 12.0 0.00 0.00 0.00 39 1012.1
20260901204441 101 85 6.0 13.0 0.00 0.00 0.00 40 1012.0
20260901203942 101 94 8.0 13.0 0.00 0.00 0.00 40 1012.2
20260901202942 100 181 4.0 15.0 0.00 0.00 0.00 42 1012.2
20260901202442 100 165 9.0 15.0 0.00 0.00 0.00 41 1012.3
20260901201942 102 182 7.0 14.0 0.00 0.00 0.00 40 1012.1
20260901201444 101 89 3.0 9.0 0.00 0.00 0.00 40 1012.5
20260901200942 101 87 5.0 9.0 0.00 0.00 0.00 41 1012.5
20260901195943 99 96 3.0 10.0 0.00 0.00 0.00 43 1012.7
20260901195442 99 113 3.0 12.0 0.00 0.00 0.00 43 1012.7
20260901194442 99 127 5.0 12.0 0.00 0.00 0.00 43 1012.8
20260901193442 99 133 3.0 18.0 0.00 0.00 0.00 44 1012.9
20260901192942 99 177 6.0 12.0 0.00 0.00 0.00 43 1012.9
20260901192442 99 117 3.0 10.0 0.00 0.00 0.00 44 1013.0